Time,TemperatureF,DewpointF,PressureIn,WindDirection,WindDirectionDegrees,WindSpeedMPH,WindSpeedGustMPH,Humidity,HourlyPrecipIn,Conditions,Clouds,dailyrainin,SoftwareType,DateUTC
2013-03-28 00:02:00,37.2,26.0,30.14,NNE,16,1.0,2.0,65,0.00,,,0.00,weatherlink.com 1.10,2013-03-28 04:02:00,
2013-03-28 00:17:00,37.3,26.0,30.13,SSE,161,4.0,4.0,65,0.00,,,0.00,weatherlink.com 1.10,2013-03-28 04:17:00,
2013-03-28 00:35:00,37.7,27.0,30.13,WNW,291,0.0,5.0,65,0.00,,,0.00,weatherlink.com 1.10,2013-03-28 04:35:00,
2013-03-28 00:47:00,37.8,27.0,30.13,West,271,0.0,6.0,65,0.00,,,0.00,weatherlink.com 1.10,2013-03-28 04:47:00,
2013-03-28 01:02:00,37.9,27.0,30.13,SW,232,2.0,3.0,65,0.00,,,0.00,weatherlink.com 1.10,2013-03-28 05:02:00,
2013-03-28 01:17:00,38.1,27.0,30.13,SW,232,1.0,5.0,64,0.00,,,0.00,weatherlink.com 1.10,2013-03-28 05:17:00,
2013-03-28 01:32:00,37.9,27.0,30.12,West,270,0.0,4.0,65,0.00,,,0.00,weatherlink.com 1.10,2013-03-28 05:32:00,
2013-03-28 01:47:00,37.5,27.0,30.12,WSW,243,0.0,5.0,65,0.00,,,0.00,weatherlink.com 1.10,2013-03-28 05:47:00,
2013-03-28 02:02:00,37.0,27.0,30.11,SSE,166,1.0,4.0,66,0.00,,,0.00,weatherlink.com 1.10,2013-03-28 06:02:00,
2013-03-28 02:18:00,36.8,27.0,30.11,ESE,108,4.0,4.0,67,0.00,,,0.00,weatherlink.com 1.10,2013-03-28 06:18:00,
2013-03-28 02:33:00,36.9,26.0,30.11,West,277,5.0,12.0,65,0.00,,,0.00,weatherlink.com 1.10,2013-03-28 06:33:00,
2013-03-28 02:48:00,36.9,26.0,30.11,WNW,292,1.0,3.0,65,0.00,,,0.00,weatherlink.com 1.10,2013-03-28 06:48:00,
2013-03-28 03:03:00,36.8,26.0,30.11,West,269,1.0,6.0,65,0.00,,,0.00,weatherlink.com 1.10,2013-03-28 07:03:00,
2013-03-28 03:18:00,36.5,26.0,30.11,ESE,118,0.0,5.0,65,0.00,,,0.00,weatherlink.com 1.10,2013-03-28 07:18:00,
2013-03-28 03:33:00,36.5,26.0,30.10,NW,306,0.0,6.0,66,0.00,,,0.00,weatherlink.com 1.10,2013-03-28 07:33:00,
2013-03-28 03:48:00,36.4,26.0,30.10,WNW,300,1.0,4.0,66,0.00,,,0.00,weatherlink.com 1.10,2013-03-28 07:48:00,
2013-03-28 04:03:00,36.8,26.0,30.09,NNW,327,0.0,13.0,66,0.00,,,0.00,weatherlink.com 1.10,2013-03-28 08:03:00,
2013-03-28 04:18:00,36.9,26.0,30.09,WNW,294,1.0,7.0,66,0.00,,,0.00,weatherlink.com 1.10,2013-03-28 08:18:00,
2013-03-28 04:33:00,36.7,27.0,30.09,North,350,2.0,5.0,67,0.00,,,0.00,weatherlink.com 1.10,2013-03-28 08:33:00,
2013-03-28 04:50:00,36.6,27.0,30.09,NW,311,0.0,3.0,67,0.00,,,0.00,weatherlink.com 1.10,2013-03-28 08:50:00,
2013-03-28 05:03:00,36.5,27.0,30.10,WNW,290,2.0,3.0,68,0.00,,,0.00,weatherlink.com 1.10,2013-03-28 09:03:00,
2013-03-28 05:18:00,36.7,27.0,30.10,WNW,293,1.0,7.0,68,0.00,,,0.00,weatherlink.com 1.10,2013-03-28 09:18:00,
2013-03-28 05:33:00,36.7,27.0,30.11,WSW,248,0.0,8.0,68,0.00,,,0.00,weatherlink.com 1.10,2013-03-28 09:33:00,
2013-03-28 05:48:00,36.9,27.0,30.11,East,85,0.0,5.0,68,0.00,,,0.00,weatherlink.com 1.10,2013-03-28 09:48:00,
2013-03-28 06:03:00,36.9,27.0,30.11,NNW,344,2.0,7.0,68,0.00,,,0.00,weatherlink.com 1.10,2013-03-28 10:03:00,
2013-03-28 06:18:00,37.0,28.0,30.11,NNE,22,2.0,7.0,69,0.00,,,0.00,weatherlink.com 1.10,2013-03-28 10:18:00,
2013-03-28 06:33:00,37.3,28.0,30.11,WSW,245,3.0,4.0,68,0.00,,,0.00,weatherlink.com 1.10,2013-03-28 10:33:00,
2013-03-28 06:48:00,37.3,28.0,30.11,NNE,28,1.0,5.0,68,0.00,,,0.00,weatherlink.com 1.10,2013-03-28 10:48:00,
2013-03-28 07:03:00,37.5,28.0,30.12,NNW,340,0.0,4.0,68,0.00,,,0.00,weatherlink.com 1.10,2013-03-28 11:03:00,
2013-03-28 07:18:00,37.5,28.0,30.12,NE,45,0.0,4.0,68,0.00,,,0.00,weatherlink.com 1.10,2013-03-28 11:18:00,
2013-03-28 07:33:00,37.5,28.0,30.13,NW,306,0.0,6.0,68,0.00,,,0.00,weatherlink.com 1.10,2013-03-28 11:33:00,
2013-03-28 07:48:00,37.6,28.0,30.13,ENE,78,0.0,3.0,68,0.00,,,0.00,weatherlink.com 1.10,2013-03-28 11:48:00,
2013-03-28 08:03:00,37.6,28.0,30.14,WSW,248,1.0,4.0,68,0.00,,,0.00,weatherlink.com 1.10,2013-03-28 12:03:00,
2013-03-28 08:18:00,37.5,28.0,30.14,NNW,329,0.0,4.0,68,0.00,,,0.00,weatherlink.com 1.10,2013-03-28 12:18:00,
2013-03-28 08:33:00,37.5,28.0,30.14,NNE,32,1.0,2.0,68,0.00,,,0.00,weatherlink.com 1.10,2013-03-28 12:33:00,
2013-03-28 08:48:00,37.8,28.0,30.14,NW,317,1.0,4.0,68,0.00,,,0.00,weatherlink.com 1.10,2013-03-28 12:48:00,
2013-03-28 09:03:00,38.3,29.0,30.14,ESE,121,2.0,5.0,68,0.00,,,0.00,weatherlink.com 1.10,2013-03-28 13:03:00,
2013-03-28 09:18:00,39.4,29.0,30.14,NW,317,1.0,7.0,66,0.00,,,0.00,weatherlink.com 1.10,2013-03-28 13:18:00,
2013-03-28 09:33:00,40.3,29.0,30.14,ENE,62,1.0,7.0,65,0.00,,,0.00,weatherlink.com 1.10,2013-03-28 13:33:00,
2013-03-28 09:48:00,40.5,29.0,30.14,ENE,64,1.0,7.0,64,0.00,,,0.00,weatherlink.com 1.10,2013-03-28 13:48:00,
2013-03-28 10:03:00,40.8,29.0,30.16,NNE,28,3.0,6.0,64,0.00,,,0.00,weatherlink.com 1.10,2013-03-28 14:03:00,
2013-03-28 10:18:00,41.0,29.0,30.16,ENE,57,2.0,5.0,62,0.00,,,0.00,weatherlink.com 1.10,2013-03-28 14:18:00,
2013-03-28 10:33:00,42.4,31.0,30.16,North,5,0.0,4.0,65,0.00,,,0.00,weatherlink.com 1.10,2013-03-28 14:33:00,
2013-03-28 10:48:00,42.5,31.0,30.16,NE,36,4.0,5.0,63,0.00,,,0.00,weatherlink.com 1.10,2013-03-28 14:48:00,
2013-03-28 11:03:00,42.2,30.0,30.16,NE,52,4.0,7.0,62,0.00,,,0.00,weatherlink.com 1.10,2013-03-28 15:03:00,
2013-03-28 11:18:00,42.2,30.0,30.16,NNE,21,3.0,7.0,62,0.00,,,0.00,weatherlink.com 1.10,2013-03-28 15:18:00,
2013-03-28 11:33:00,42.1,29.0,30.16,East,87,2.0,8.0,61,0.00,,,0.00,weatherlink.com 1.10,2013-03-28 15:33:00,
2013-03-28 11:48:00,41.8,29.0,30.16,NW,313,0.0,5.0,62,0.00,,,0.00,weatherlink.com 1.10,2013-03-28 15:48:00,
2013-03-28 12:03:00,42.1,30.0,30.16,NNE,24,1.0,3.0,63,0.00,,,0.00,weatherlink.com 1.10,2013-03-28 16:03:00,
2013-03-28 12:18:00,43.1,30.0,30.17,NE,46,2.0,5.0,61,0.00,,,0.00,weatherlink.com 1.10,2013-03-28 16:18:00,
2013-03-28 12:33:00,43.7,30.0,30.16,NNW,338,3.0,9.0,58,0.00,,,0.00,weatherlink.com 1.10,2013-03-28 16:33:00,
2013-03-28 12:48:00,43.8,30.0,30.16,NE,51,3.0,6.0,58,0.00,,,0.00,weatherlink.com 1.10,2013-03-28 16:48:00,
2013-03-28 13:03:00,44.7,31.0,30.16,NNE,27,2.0,9.0,58,0.00,,,0.00,weatherlink.com 1.10,2013-03-28 17:03:00,
2013-03-28 13:18:00,45.2,30.0,30.16,NNE,31,3.0,11.0,55,0.00,,,0.00,weatherlink.com 1.10,2013-03-28 17:18:00,
2013-03-28 13:33:00,45.6,30.0,30.16,NNE,32,2.0,9.0,55,0.00,,,0.00,weatherlink.com 1.10,2013-03-28 17:33:00,
2013-03-28 13:48:00,44.5,30.0,30.16,NNE,24,2.0,10.0,57,0.00,,,0.00,weatherlink.com 1.10,2013-03-28 17:48:00,
2013-03-28 14:03:00,44.9,31.0,30.16,NE,50,3.0,8.0,58,0.00,,,0.00,weatherlink.com 1.10,2013-03-28 18:03:00,
2013-03-28 14:18:00,45.9,32.0,30.16,NE,46,2.0,6.0,58,0.00,,,0.00,weatherlink.com 1.10,2013-03-28 18:18:00,
2013-03-28 14:33:00,44.3,30.0,30.16,East,87,1.0,9.0,58,0.00,,,0.00,weatherlink.com 1.10,2013-03-28 18:33:00,
2013-03-28 14:48:00,43.7,29.0,30.16,NE,34,4.0,6.0,57,0.00,,,0.00,weatherlink.com 1.10,2013-03-28 18:48:00,
2013-03-28 15:03:00,43.2,30.0,30.16,West,275,1.0,6.0,60,0.00,,,0.00,weatherlink.com 1.10,2013-03-28 19:03:00,
2013-03-28 15:18:00,44.0,30.0,30.16,North,9,2.0,10.0,58,0.00,,,0.00,weatherlink.com 1.10,2013-03-28 19:18:00,
2013-03-28 15:33:00,44.0,29.0,30.16,NNE,32,4.0,9.0,57,0.00,,,0.00,weatherlink.com 1.10,2013-03-28 19:33:00,
2013-03-28 15:48:00,43.4,30.0,30.16,NNW,339,2.0,8.0,59,0.00,,,0.00,weatherlink.com 1.10,2013-03-28 19:48:00,
2013-03-28 16:03:00,44.4,29.0,30.16,NE,34,4.0,7.0,56,0.00,,,0.00,weatherlink.com 1.10,2013-03-28 20:03:00,
2013-03-28 16:19:00,43.7,29.0,30.17,NE,43,3.0,9.0,57,0.00,,,0.00,weatherlink.com 1.10,2013-03-28 20:19:00,
2013-03-28 16:33:00,44.4,31.0,30.16,ENE,78,2.0,5.0,59,0.00,,,0.00,weatherlink.com 1.10,2013-03-28 20:33:00,
2013-03-28 16:49:00,44.3,30.0,30.17,ENE,74,2.0,7.0,57,0.00,,,0.00,weatherlink.com 1.10,2013-03-28 20:49:00,
2013-03-28 17:04:00,43.7,30.0,30.17,NW,323,2.0,7.0,59,0.00,,,0.00,weatherlink.com 1.10,2013-03-28 21:04:00,
2013-03-28 17:19:00,43.7,30.0,30.18,NW,313,6.0,10.0,58,0.00,,,0.00,weatherlink.com 1.10,2013-03-28 21:19:00,
2013-03-28 17:34:00,43.7,30.0,30.18,NNE,33,2.0,3.0,58,0.00,,,0.00,weatherlink.com 1.10,2013-03-28 21:34:00,
2013-03-28 17:49:00,43.4,29.0,30.18,NNE,32,2.0,6.0,58,0.00,,,0.00,weatherlink.com 1.10,2013-03-28 21:49:00,
2013-03-28 18:04:00,43.0,29.0,30.18,NNW,346,0.0,7.0,59,0.00,,,0.00,weatherlink.com 1.10,2013-03-28 22:04:00,
2013-03-28 18:19:00,42.9,29.0,30.19,NNE,33,1.0,5.0,58,0.00,,,0.00,weatherlink.com 1.10,2013-03-28 22:19:00,
2013-03-28 18:34:00,42.8,29.0,30.19,WNW,289,3.0,6.0,59,0.00,,,0.00,weatherlink.com 1.10,2013-03-28 22:34:00,
2013-03-28 18:49:00,42.4,29.0,30.19,NNW,340,1.0,6.0,60,0.00,,,0.00,weatherlink.com 1.10,2013-03-28 22:49:00,
2013-03-28 19:04:00,42.2,29.0,30.20,NW,306,1.0,6.0,59,0.00,,,0.00,weatherlink.com 1.10,2013-03-28 23:04:00,
2013-03-28 19:19:00,42.1,29.0,30.20,ENE,65,2.0,6.0,59,0.00,,,0.00,weatherlink.com 1.10,2013-03-28 23:19:00,
2013-03-28 19:34:00,41.6,29.0,30.21,NNE,22,1.0,4.0,61,0.00,,,0.00,weatherlink.com 1.10,2013-03-28 23:34:00,
2013-03-28 19:49:00,41.5,29.0,30.21,NW,314,0.0,3.0,61,0.00,,,0.00,weatherlink.com 1.10,2013-03-28 23:49:00,
2013-03-28 20:04:00,40.9,29.0,30.21,NW,314,0.0,2.0,62,0.00,,,0.00,weatherlink.com 1.10,2013-03-29 00:04:00,
2013-03-28 20:19:00,40.3,28.0,30.22,North,5,0.0,4.0,63,0.00,,,0.00,weatherlink.com 1.10,2013-03-29 00:19:00,
2013-03-28 20:34:00,40.2,29.0,30.22,North,5,0.0,2.0,64,0.00,,,0.00,weatherlink.com 1.10,2013-03-29 00:34:00,
2013-03-28 20:49:00,39.9,29.0,30.23,North,5,0.0,1.0,65,0.00,,,0.00,weatherlink.com 1.10,2013-03-29 00:49:00,
2013-03-28 21:04:00,39.7,29.0,30.23,NW,308,0.0,0.0,66,0.00,,,0.00,weatherlink.com 1.10,2013-03-29 01:04:00,
2013-03-28 21:19:00,39.7,29.0,30.23,North,9,1.0,3.0,66,0.00,,,0.00,weatherlink.com 1.10,2013-03-29 01:19:00,
2013-03-28 21:34:00,39.9,29.0,30.23,North,9,0.0,3.0,66,0.00,,,0.00,weatherlink.com 1.10,2013-03-29 01:34:00,
2013-03-28 21:49:00,39.8,29.0,30.24,North,9,0.0,2.0,66,0.00,,,0.00,weatherlink.com 1.10,2013-03-29 01:49:00,
2013-03-28 22:04:00,39.8,29.0,30.24,NNE,33,1.0,4.0,66,0.00,,,0.00,weatherlink.com 1.10,2013-03-29 02:04:00,
2013-03-28 22:19:00,40.7,30.0,30.24,North,355,0.0,4.0,65,0.00,,,0.00,weatherlink.com 1.10,2013-03-29 02:19:00,
2013-03-28 22:34:00,40.7,29.0,30.24,NNE,19,0.0,4.0,64,0.00,,,0.00,weatherlink.com 1.10,2013-03-29 02:34:00,
2013-03-28 22:50:00,40.5,29.0,30.24,NE,42,1.0,3.0,64,0.00,,,0.00,weatherlink.com 1.10,2013-03-29 02:50:00,
2013-03-28 23:04:00,40.3,29.0,30.25,NE,41,0.0,3.0,65,0.00,,,0.00,weatherlink.com 1.10,2013-03-29 03:04:00,
2013-03-28 23:19:00,39.8,29.0,30.25,NE,41,0.0,2.0,66,0.00,,,0.00,weatherlink.com 1.10,2013-03-29 03:19:00,
2013-03-28 23:34:00,39.5,29.0,30.24,NNE,19,0.0,3.0,67,0.00,,,0.00,weatherlink.com 1.10,2013-03-29 03:34:00,
2013-03-28 23:49:00,39.8,30.0,30.24,NNE,24,0.0,5.0,68,0.00,,,0.00,weatherlink.com 1.10,2013-03-29 03:49:00,